Temp
12 12 12 12 12 12 12 11 10 11 11 12 12 12 12 12 12 13 13 15 15 16 16 16 17 17 17 16 18 19 17 18 20 21 23 25 25 24 22 22 20 20 18 19 17
11 12 12 12 13 12 12 11 11 10 11 12 12 12 12 12 12 13 14 14 15 15 16 15 15 15 15 16 17 17 15 18 22 20 23 24 25 23 22 21 18 18 19 17 17
10 11 12 12 12 12 12 12 11 10 11 12 12 12 12 12 12 14 15 15 14 14 15 15 15 16 16 17 17 17 17 20 21 20 20 23 24 24 21 23 19 18 17 17 17
9 10 11 12 12 13 12 12 11 11 11 12 12 13 13 12 13 16 16 15 15 15 15 15 15 16 15 16 17 18 19 20 21 19 20 22 20 23 23 23 21 19 18 17 16
9 10 10 12 12 13 12 12 12 11 12 12 12 13 13 13 14 15 16 15 14 15 14 15 15 15 16 16 17 17 18 20 20 20 18 21 21 22 22 19 19 18 18 17 17
10 10 12 13 13 13 13 13 12 12 12 12 13 13 13 13 15 15 15 15 15 15 15 15 15 15 15 16 17 18 18 19 19 19 19 21 21 22 21 18 18 18 18 17 17
10 13 13 13 13 13 13 13 13 13 13 13 13 12 12 14 15 16 16 15 15 15 15 16 16 16 15 15 17 18 19 18 18 18 19 20 22 22 19 18 18 18 17 17 17
12 13 13 13 14 14 13 13 14 14 13 13 13 12 13 16 16 16 16 16 16 16 15 16 16 16 15 15 16 18 17 16 18 18 20 20 21 21 18 18 17 17 17 17 16
14 14 13 13 14 14 14 14 14 14 14 13 13 13 14 16 16 16 16 15 16 16 16 16 16 15 15 15 14 14 15 17 18 18 18 19 20 21 18 18 18 18 17 17 16
13 13 13 13 14 14 15 14 14 14 14 13 13 13 15 15 16 16 16 16 16 15 15 15 12 12 12 12 13 16 16 17 18 18 19 17 18 20 18 18 17 16 17 17 17
13 13 12 13 14 14 15 15 12 12 13 14 14 15 15 16 16 16 16 16 15 14 13 14 11 12 14 14 15 15 17 16 17 19 19 18 18 19 18 18 17 16 16 17 18
13 13 13 13 14 14 14 12 12 12 11 14 15 15 16 16 15 16 16 14 14 13 14 13 13 15 15 15 15 15 16 16 16 18 18 18 18 19 19 19 19 18 16 16 16
13 13 13 13 14 14 13 12 12 13 11 14 16 16 16 16 15 15 16 15 15 14 15 14 15 16 15 16 17 17 16 17 17 18 19 17 18 19 18 18 18 18 18 17 18
14 14 14 14 14 13 12 12 12 13 10 14 16 16 17 16 15 17 16 15 15 15 15 14 15 16 16 17 16 16 16 17 17 16 15 18 15 16 17 17 17 17 16 18 18
14 14 14 14 13 12 12 12 13 13 9 15 16 17 17 16 16 16 16 16 14 14 14 14 15 15 16 16 16 16 16 17 18 16 16 17 14 16 17 17 17 16 16 17 17
14 14 13 13 13 12 12 13 13 9 9 14 16 16 16 16 16 16 15 15 15 14 14 14 15 14 15 15 16 16 17 14 12 12 12 16 13 15 16 18 19 18 16 16 14
14 13 13 13 12 13 13 12 9 10 14 15 15 15 15 15 16 15 15 14 14 12 11 14 15 15 15 15 15 15 12 10 12 10 12 13 11 16 18 16 15 16 16 14 12
14 13 13 12 12 12 12 11 12 15 14 15 15 14 15 16 16 15 15 13 14 14 10 11 11 14 14 15 15 15 13 10 14 12 13 14 14 15 15 13 12 11 11 11 11
14 13 13 12 12 12 10 9 12 14 14 13 14 15 15 16 16 15 14 14 14 15 14 13 14 14 14 14 14 16 14 14 13 12 13 12 14 16 15 14 13 12 11 10 10
13 13 13 12 12 12 10 13 12 14 14 14 14 15 15 14 15 15 15 14 14 14 14 15 13 14 14 14 14 15 14 13 10 15 15 12 13 13 13 13 13 12 11 10 10
12 11 12 12 12 9 11 11 14 14 14 14 14 14 15 14 14 15 15 15 13 13 14 14 13 13 14 12 13 12 13 14 12 12 14 13 12 12 13 12 11 11 10 9 9
11 13 12 12 12 7 12 14 14 14 14 14 13 13 14 14 14 15 15 14 13 13 13 13 11 11 13 13 13 13 14 13 12 15 11 12 12 14 14 12 11 10 9 8 8
9 9 11 11 14 12 13 14 13 14 13 14 14 14 14 14 14 15 15 14 13 13 13 12 11 9 13 12 13 13 13 14 12 10 12 13 14 12 12 10 10 8 8 7 7
9 12 10 8 9 14 15 14 15 13 13 14 13 14 14 14 13 14 15 14 13 13 12 12 10 11 11 14 13 13 13 12 13 8 12 11 14 14 13 11 9 8 7 6 6
7 11 11 12 12 13 14 14 15 15 12 12 13 12 14 13 14 13 14 14 12 12 12 11 11 9 10 10 10 11 12 12 9 13 13 15 14 14 12 10 8 7 7 6 6
9 10 8 10 12 13 12 13 14 15 13 13 12 14 11 12 14 14 14 13 14 11 12 10 11 11 10 11 10 10 10 10 10 12 11 12 12 12 12 8 8 7 8 8 6
9 9 9 10 11 11 12 13 14 14 15 14 12 13 12 12 12 12 11 12 12 13 11 10 10 11 11 11 11 12 11 11 11 11 12 12 14 13 11 10 10 8 8 7 7
Height
837 836 834 831 829 827 825 822 818 815 812 809 807 805 804 802 801 801 800 799 799 798 796 794 792 791 792 792 789 787 805 809 798 798 786 770 776 773 774 780 785 785 790 792 803
835 835 833 831 829 827 825 821 818 815 812 809 807 805 805 803 802 800 799 798 798 797 796 794 794 792 795 792 790 794 807 798 782 786 781 773 773 775 780 786 792 791 789 795 803
833 833 832 830 829 827 824 821 818 815 812 809 806 805 804 804 803 800 799 798 797 796 795 794 794 793 796 793 791 792 799 786 782 779 780 777 775 772 780 786 786 790 794 798 804
832 831 831 830 828 826 824 821 818 815 812 809 807 805 804 804 809 800 799 797 795 794 794 793 793 794 796 797 791 794 786 783 780 781 782 779 781 779 775 775 774 782 783 793 802
830 830 829 828 828 826 823 820 817 815 813 811 808 806 804 804 803 800 799 796 794 794 794 794 795 795 797 795 792 794 787 782 778 778 784 777 782 781 781 776 777 786 790 795 800
829 828 827 827 826 825 823 820 817 815 813 812 810 807 806 809 802 800 798 796 795 795 795 796 796 794 797 794 793 788 787 785 783 781 783 782 782 779 782 780 784 788 792 794 797
828 827 826 825 824 823 822 820 818 816 814 813 811 809 808 808 803 801 799 798 797 796 796 795 794 795 795 794 788 786 790 788 787 785 786 781 785 784 782 784 786 791 795 797 796
826 826 825 824 823 822 820 819 818 816 815 814 812 810 809 803 802 801 799 798 797 797 796 794 793 793 794 790 788 788 794 805 788 787 782 782 792 781 784 785 789 791 795 798 797
827 825 824 823 822 821 820 818 817 816 814 813 813 811 810 804 802 801 800 799 798 797 795 794 793 794 795 798 802 801 808 801 794 786 785 788 789 778 783 785 789 790 793 795 796
827 826 824 823 821 820 818 816 815 814 813 812 812 816 807 808 803 801 800 799 798 797 796 795 800 804 806 808 816 804 801 797 796 791 787 794 794 783 785 787 788 790 791 793 791
827 825 824 822 822 820 818 815 818 818 814 816 813 812 809 806 804 802 800 799 798 800 804 799 811 811 804 803 801 803 799 802 795 784 788 792 791 785 782 785 790 792 792 790 787
827 825 824 823 822 821 820 822 826 827 825 813 812 810 807 807 806 802 801 804 803 808 801 807 810 800 798 797 800 802 802 801 793 785 790 790 788 782 782 778 779 781 788 787 787
828 826 825 825 824 824 823 825 826 826 828 817 810 809 807 807 807 805 802 803 804 805 803 807 799 793 795 796 795 795 801 796 795 786 785 793 795 786 779 781 777 777 779 784 785
827 827 826 825 827 825 826 825 825 826 838 823 813 810 807 805 809 803 802 805 806 806 802 804 798 796 795 796 798 799 793 791 791 799 811 790 814 792 785 784 779 777 780 778 780
827 827 826 824 825 825 826 824 824 825 869 819 813 807 806 810 808 805 803 803 809 808 810 809 802 802 798 796 796 799 793 790 787 796 800 798 817 790 781 782 776 775 774 773 773
826 827 826 826 825 825 824 823 825 848 868 827 812 812 812 809 808 804 806 805 804 807 805 805 799 801 799 796 794 793 792 799 807 813 828 800 814 799 785 773 766 764 767 769 773
827 827 826 826 826 825 824 825 848 856 829 826 822 814 816 812 809 808 807 811 813 824 823 807 802 798 798 798 794 796 811 840 831 840 825 807 821 790 769 769 770 765 763 768 773
826 826 825 826 825 825 824 833 847 832 831 821 819 819 817 808 808 808 811 814 807 810 828 827 825 802 799 799 800 798 807 832 817 829 818 804 809 789 773 775 773 769 766 769 773
825 825 825 824 824 825 830 855 844 833 830 830 823 820 819 809 809 810 811 814 809 806 816 816 810 800 799 800 800 797 807 803 814 819 818 810 793 773 773 774 775 774 773 775 776
826 824 825 824 824 825 836 837 836 828 827 827 831 822 824 821 818 813 811 810 809 806 808 807 817 801 799 798 799 798 801 812 829 810 809 810 802 792 781 779 778 780 781 781 781
826 826 823 824 824 829 842 840 829 825 826 828 828 828 822 821 819 815 812 809 811 810 807 807 814 810 803 805 803 808 804 804 811 816 809 812 803 779 775 775 778 781 784 785 787
826 830 824 823 830 843 834 828 827 825 824 825 825 825 822 820 819 812 812 809 810 811 811 810 816 821 805 798 797 798 798 802 814 801 814 814 800 769 768 771 775 782 786 789 791
827 829 825 825 831 833 829 825 826 827 827 825 824 821 819 821 823 814 809 808 809 809 810 813 818 834 805 804 799 798 795 794 804 813 805 805 791 774 773 775 777 783 788 790 793
829 831 827 828 829 825 823 823 821 824 824 823 823 823 821 819 817 816 810 807 809 810 810 813 820 817 822 800 799 797 795 795 796 828 801 798 780 773 773 776 781 784 787 791 794
828 828 827 830 825 825 824 824 821 820 824 823 822 822 821 822 816 816 809 807 810 810 812 813 817 821 813 808 805 800 795 793 808 787 788 772 777 768 770 775 779 782 788 790 793
830 828 829 828 822 822 825 822 820 814 818 820 822 814 821 822 814 811 809 811 807 813 812 816 812 809 810 795 800 799 796 794 792 786 790 783 777 768 765 773 780 781 783 787 792
827 827 827 826 824 825 821 815 813 811 807 808 813 814 816 812 809 808 807 806 806 806 814 816 817 812 803 795 795 790 782 783 783 782 774 780 761 760 765 770 769 776 780 784 790
Wind_Speed
7 8 10 12 14 15 17 19 20 17 14 12 11 10 8 3 2 2 3 3 4 7 10 8 6 5 3 2 3 0 2 4 7 8 5 1 4 1 3 7 3 2 7 14 33
8 8 9 11 12 13 15 17 20 18 16 13 10 10 9 5 3 4 3 5 7 8 8 3 4 8 2 2 3 3 4 7 4 7 4 5 3 7 5 4 4 5 11 30 35
8 9 9 10 11 13 14 16 18 18 16 13 10 9 7 6 2 3 7 7 8 7 6 4 7 2 2 2 2 3 5 3 2 4 3 2 2 1 11 2 6 13 18 22 28
8 8 9 9 11 13 14 15 17 16 14 13 11 9 6 4 3 5 12 10 8 6 3 2 2 1 1 3 3 2 6 3 2 1 2 2 4 2 1 5 8 19 25 22 19
7 7 8 9 10 12 13 15 15 13 11 12 9 11 4 3 2 10 12 9 3 2 1 3 2 2 1 3 2 4 3 2 3 4 5 3 3 3 2 3 15 16 19 19 15
7 5 6 7 8 10 11 12 13 11 10 12 9 10 3 3 7 11 10 7 3 1 3 2 2 4 3 4 3 0 6 4 1 3 3 1 2 2 1 9 14 16 16 17 16
6 5 5 6 7 8 9 9 9 9 9 9 10 8 1 3 9 11 6 6 2 2 0 2 2 2 2 5 1 2 2 0 4 4 5 5 4 3 3 7 16 13 10 12 14
4 4 5 6 6 7 8 8 7 6 5 7 11 6 3 5 7 10 9 5 1 3 4 7 5 1 2 5 5 5 5 4 4 6 4 5 7 5 7 11 11 11 10 11 11
4 4 6 5 6 8 9 9 8 7 8 8 5 4 5 9 5 6 7 5 5 5 6 8 2 0 5 2 4 6 3 3 1 6 3 1 4 5 8 8 10 11 12 12 11
7 7 7 5 6 8 9 10 6 8 4 3 4 3 5 5 6 8 5 6 2 3 5 3 4 3 4 4 4 1 3 1 3 5 2 5 6 2 8 7 10 8 9 12 13
9 9 6 3 5 7 11 3 6 4 5 1 5 2 5 7 5 4 3 6 3 3 3 3 5 2 5 3 2 4 3 1 3 4 5 9 8 7 8 7 8 8 8 11 11
10 8 5 3 4 6 7 5 2 1 5 6 6 4 6 3 3 3 4 4 4 3 4 4 1 4 4 4 4 4 2 5 5 5 7 4 12 5 7 6 10 13 10 10 7
9 7 5 4 4 6 7 5 2 2 0 5 4 3 3 1 3 4 3 4 2 5 3 1 4 5 3 3 1 1 4 3 4 2 1 5 5 5 6 4 4 7 9 7 13
7 5 5 3 2 3 2 5 2 2 4 6 3 3 2 1 3 2 3 1 4 3 5 4 5 4 2 1 0 0 4 4 4 5 4 4 4 6 6 10 8 11 9 13 13
6 4 3 6 2 2 3 5 2 2 6 6 5 2 2 1 2 2 2 2 2 4 4 5 4 4 2 2 1 5 3 3 2 3 3 0 3 7 2 8 10 11 12 12 13
4 4 2 1 2 2 3 2 1 6 3 6 3 4 4 1 2 2 1 1 2 3 2 5 1 2 2 3 2 3 2 6 4 3 2 3 5 5 5 8 6 6 10 11 8
2 4 4 2 1 3 2 2 5 6 3 7 4 3 3 3 2 1 1 3 1 4 4 4 3 3 1 2 2 2 5 2 3 3 5 2 3 8 3 3 5 9 8 7 8
1 3 2 3 3 3 1 5 8 2 4 3 3 7 3 1 3 2 3 3 2 2 1 2 7 3 4 2 2 1 5 4 4 3 4 1 5 7 1 3 4 3 5 8 8
1 2 2 3 2 3 4 5 4 3 2 5 8 3 4 3 1 1 3 2 2 2 2 2 4 2 1 2 1 1 0 2 4 2 2 4 7 7 1 2 5 6 6 7 7
2 1 2 5 2 2 4 3 4 3 1 1 2 2 3 5 5 1 2 2 2 0 1 2 4 2 2 1 2 2 2 2 3 2 4 5 5 6 6 7 3 3 4 4 6
0 2 0 2 1 4 3 5 4 3 3 3 1 3 3 3 2 3 3 2 3 5 2 1 1 4 2 5 5 1 2 2 2 4 3 2 6 5 5 8 9 7 6 6 6
2 1 1 1 3 1 1 3 1 3 3 3 2 4 3 3 4 2 2 4 1 1 3 2 2 4 8 3 3 4 3 4 4 3 3 3 6 2 3 5 8 8 6 5 7
2 2 1 2 2 1 3 2 3 2 3 2 3 4 0 2 2 3 3 1 1 0 1 2 2 4 7 4 2 4 4 5 2 2 5 4 6 2 2 4 6 9 8 8 8
2 1 3 3 1 3 1 3 2 3 3 3 3 1 2 3 5 4 3 1 1 1 1 1 1 5 5 4 2 4 3 4 6 2 2 7 6 4 5 7 6 6 7 8 8
1 3 3 2 3 3 2 2 2 3 3 3 3 5 4 3 3 4 3 3 2 0 0 2 4 4 7 9 6 7 9 7 7 8 9 7 9 7 8 10 9 8 8 9 8
2 2 2 2 1 4 4 5 7 4 6 4 5 3 6 6 7 5 2 3 4 1 1 1 4 2 5 8 5 6 10 10 9 6 9 7 14 6 5 6 7 10 12 10 8
2 1 3 3 1 4 5 6 6 5 5 5 8 3 5 11 7 7 5 4 4 2 3 3 2 2 5 3 7 7 6 7 5 5 7 9 11 4 4 8 13 13 12 11 10
Wind_Direction
316 330 346 355 1 1 3 4 2 359 351 344 348 347 345 342 302 265 257 287 285 296 317 308 346 301 289 285 252 128 119 194 194 169 234 201 144 65 19 106 68 29 147 154 146
302 317 332 343 350 350 358 360 1 358 358 356 354 354 351 342 291 250 293 311 281 296 311 344 329 349 338 242 270 142 153 203 210 187 234 317 157 157 104 128 45 56 100 128 141
311 316 321 331 339 342 350 355 357 358 3 4 2 359 349 331 309 351 358 326 302 294 281 286 292 269 188 214 247 190 188 230 27 173 243 304 60 323 126 196 195 158 142 142 149
314 322 322 322 333 338 345 350 355 359 6 7 7 6 348 328 56 353 350 324 305 299 271 303 342 25 208 205 257 263 227 229 289 269 314 53 307 298 357 174 165 163 152 150 158
310 322 323 319 329 335 344 353 358 1 8 7 14 1 8 7 333 342 340 333 312 172 267 337 340 344 285 213 324 173 270 318 218 193 228 307 94 321 34 46 125 146 151 159 162
312 312 311 316 324 331 342 355 3 11 6 3 4 359 10 45 328 343 351 348 349 149 347 339 300 278 277 266 153 302 256 240 232 287 207 126 328 74 261 129 129 151 164 165 166
318 298 312 319 324 329 337 347 1 10 12 13 6 357 17 244 336 342 339 348 267 307 303 287 310 24 303 299 276 212 222 39 219 206 234 167 300 219 149 144 145 155 171 177 172
316 307 313 320 323 328 331 336 335 336 349 344 345 348 271 355 342 2 6 352 52 297 301 310 296 252 222 296 343 147 91 138 237 152 267 228 231 204 165 148 161 163 176 190 186
0 332 315 316 325 328 325 321 313 303 308 317 355 17 320 330 338 349 350 342 275 303 297 301 331 31 353 37 24 9 175 168 154 215 137 183 250 189 176 169 170 180 182 191 188
10 345 321 309 332 333 330 317 316 315 336 301 294 4 335 308 319 334 9 352 330 341 348 10 40 47 26 55 189 56 110 119 196 204 181 181 255 237 188 180 190 184 190 197 190
359 348 332 330 355 353 358 15 14 354 22 254 282 232 280 310 307 328 339 332 356 36 32 328 56 200 235 215 229 295 322 328 273 205 148 199 229 220 198 182 181 208 202 201 195
0 5 7 29 29 21 25 66 86 253 328 292 264 275 271 311 320 302 349 28 27 339 314 18 287 246 260 283 273 252 271 283 275 230 181 184 230 225 207 202 203 190 211 211 178
9 19 42 41 61 52 74 64 359 334 118 302 261 278 280 9 317 306 25 338 321 340 332 213 278 323 166 282 296 218 172 235 225 36 129 117 292 211 248 236 188 209 208 221 217
25 30 55 19 71 20 57 9 347 316 61 303 341 292 317 280 330 304 350 86 339 313 347 293 324 333 277 159 1 249 267 256 226 137 196 142 245 255 209 228 204 215 206 213 214
36 36 40 44 66 78 323 336 332 89 45 290 298 277 323 350 271 330 312 22 288 292 58 262 320 345 300 246 208 221 283 285 196 135 85 283 88 267 165 235 216 224 216 213 202
58 39 18 42 71 360 333 334 104 45 304 326 307 316 348 222 263 323 6 358 250 316 305 245 255 207 252 290 243 306 337 33 53 75 38 246 135 275 206 220 233 221 212 206 179
50 32 22 1 349 334 344 59 38 79 348 306 301 332 323 265 274 229 260 301 211 40 345 326 284 280 215 303 322 89 60 7 5 5 215 244 55 244 245 308 256 261 229 166 156
331 342 20 13 342 339 97 53 62 292 288 335 314 308 262 296 259 240 307 302 218 55 29 86 333 331 356 260 218 322 141 151 190 191 242 336 235 249 333 352 322 353 133 124 124
301 310 312 2 343 326 73 51 201 214 268 313 321 338 317 319 252 321 216 249 316 204 170 342 276 276 227 324 349 293 256 185 107 359 40 230 284 305 197 37 41 49 82 101 108
298 342 328 347 352 38 74 215 217 216 280 333 323 20 316 316 345 340 304 289 326 64 111 267 305 234 285 3 262 265 158 53 10 200 250 283 276 234 226 218 189 118 106 97 98
34 46 130 334 350 54 114 227 242 221 195 178 229 290 283 281 264 300 307 338 9 317 318 194 154 288 350 195 192 354 235 149 146 158 201 287 264 214 219 211 190 189 171 158 139
83 8 317 106 50 49 140 201 275 243 205 253 203 221 258 306 302 280 269 226 346 270 322 333 175 262 233 282 203 182 220 179 134 234 220 168 278 334 308 209 164 172 154 137 133
116 236 318 304 126 284 263 254 212 220 241 222 249 218 194 271 309 242 289 205 232 68 194 341 298 331 338 360 330 238 208 173 128 83 215 164 260 357 24 130 173 157 157 151 143
85 0 327 40 331 155 199 246 234 197 251 224 255 261 287 256 208 281 285 275 197 251 164 103 201 196 218 233 211 273 262 234 154 138 235 228 277 272 243 202 184 167 158 156 153
74 240 188 253 267 180 151 290 243 241 217 196 259 218 207 282 277 229 241 300 180 47 112 173 249 205 251 253 245 247 245 221 203 225 200 247 226 247 224 208 190 168 161 157 160
155 141 19 259 253 173 189 233 204 225 163 230 210 196 193 214 213 246 207 212 253 171 229 191 275 303 284 274 231 259 250 234 230 230 257 276 277 240 305 124 162 183 171 169 161
6 4 104 266 202 132 216 220 221 172 235 195 197 190 226 240 235 240 221 233 213 209 207 191 232 322 261 333 322 288 234 216 212 210 204 230 247 208 212 207 190 179 179 170 164